Weather History for ARCTIC BAY CS, NU

Change the Weather History Date:

Sunday, April 6, 2014

  Actual Average Record
Temperature  
Mean Temperature -16 °F -  
Max Temperature -1 °F - - ()
Min Temperature -31 °F - - ()
Degree Days  
Heating Degree Days 81    
Moisture  
Dew Point -19 °F    
Average Humidity 73    
Maximum Humidity 82    
Minimum Humidity 56    
Precipitation  
Precipitation 0.01 in - - ()
Sea Level Pressure  
Sea Level Pressure 30.10 in    
Wind  
Wind Speed 3 mph ()    
Max Wind Speed 8 mph    
Max Gust Speed 18 mph    
T = Trace of Precipitation, MM = Missing Value Source: Averaged Metar Reports

Daily Weather History Graph

Daily Weather History Graph

Search for Another Location

Airport:

Trip Planner

Search our weather history database for the weather conditions in past years. The results will help you decide how hot, cold, wet, or windy it might be!

Date:

Astronomy

Apr. 06, 2014 Rise Set
Actual Time 5:02 AM CDT 8:25 PM CDT
Civil Twilight 3:34 AM CDT 9:56 PM CDT
Nautical Twilight 1:15 AM CDT Sun does not rise
Astronomical Twilight Sun does not rise Sun does not rise
Moon No Moon Rise No Moon Set
Length of Visible Light 18h 21m
Length of Day
15h 23m
Waxing Crescent, 44% of the Moon is Illuminated
Apr 6
Waxing Crescent
Apr 7
First Quarter
Apr 15
Full
Apr 22
Last Quarter
Apr 29
New

Hourly Weather History & Observations

Time (CDT) Temp. Windchill Dew Point Humidity Pressure Visibility Wind Dir Wind Speed Gust Speed Precip Events Conditions
12:00 AM -30.1 °F - -36.6 °F 71% 30.15 in - NNE 1.2 mph - 0.01 in   Unknown
1:00 AM -26 °F - -32 °F 56% 30.15 in - North 1.2 mph - -  
1:00 AM -24.7 °F - -32.4 °F 67% 30.15 in - North 1.2 mph - N/A   Unknown
2:00 AM -24.9 °F - -31.0 °F 73% 30.14 in - NNW 2.3 mph - N/A   Unknown
3:00 AM -24.2 °F -35.4 °F -29.7 °F 75% 30.13 in - NNW 3.5 mph - N/A   Unknown
4:00 AM -23.8 °F - -29.4 °F 75% 30.13 in - NNW 1.2 mph - N/A   Unknown
5:00 AM -23.6 °F -34.8 °F -29.0 °F 76% 30.12 in - NNW 3.5 mph - N/A   Unknown
6:00 AM -20.4 °F -31.1 °F -26.1 °F 75% 30.12 in - North 3.5 mph - N/A   Unknown
7:00 AM -20 °F - -27 °F 56% 30.12 in - NNW 3.5 mph - -  
7:00 AM -19.8 °F -30.5 °F -26.7 °F 71% 30.12 in - NNW 3.5 mph - N/A   Unknown
8:00 AM -16.4 °F - -24.5 °F 67% 30.12 in - North 2.3 mph - N/A   Unknown
9:00 AM -14.4 °F -24.3 °F -22.4 °F 68% 30.11 in - NNW 3.5 mph - N/A   Unknown
10:00 AM -13.0 °F -28.6 °F -20.4 °F 70% 30.09 in - NNW 6.9 mph - N/A   Unknown
11:00 AM -11.0 °F -26.2 °F -17.3 °F 74% 30.09 in - NNW 6.9 mph - N/A   Unknown
12:00 PM -9.0 °F -23.8 °F -14.4 °F 77% 30.08 in - NNW 6.9 mph - N/A   Unknown
1:00 PM -8 °F - -13 °F 70% 30.06 in - WNW 8.1 mph - -  
1:00 PM -7.4 °F -23.2 °F -12.6 °F 78% 30.06 in - WNW 8.1 mph - N/A   Unknown
2:00 PM -6.5 °F -17.5 °F -10.8 °F 82% 30.06 in - North 4.6 mph - N/A   Unknown
3:00 PM -5.1 °F -19.1 °F -9.6 °F 81% 30.06 in - NNW 6.9 mph - N/A   Unknown
4:00 PM -4.2 °F -19.3 °F -9.0 °F 80% 30.06 in - NW 8.1 mph - N/A   Unknown
5:00 PM -3.6 °F -18.6 °F -8.1 °F 81% 30.07 in - NW 8.1 mph - N/A   Unknown
6:00 PM -3.3 °F -16.9 °F -7.8 °F 81% 30.08 in - WNW 6.9 mph - 0.01 in   Unknown
7:00 PM -4 °F - -9 °F 69% 30.07 in - WNW 5.8 mph - -  
7:00 PM -4.2 °F -16.5 °F -8.9 °F 80% 30.07 in - WNW 5.8 mph - N/A   Unknown
8:00 PM -6.5 °F - -11.6 °F 79% 30.07 in - WNW 2.3 mph - N/A   Unknown
9:00 PM -5.3 °F -16.0 °F -10.8 °F 77% 30.07 in - NW 4.6 mph - N/A   Unknown
10:00 PM -1.1 °F -14.3 °F -9.2 °F 69% - - ENE 6.9 mph 18.4 mph N/A   Unknown
11:00 PM -2.9 °F -16.5 °F -9.9 °F 72% 30.07 in - West 6.9 mph - N/A   Unknown